PRM4211 CYWG-CYYZ

Flight info

Callsign PRM4211
Flight time 1h 56m
Altitude 35000
Route RORMA DCT AXOMA DCT SIDPO DCT DEGVA DCT AGLIN DCT OTNIK BOXUM7
Aircraft B77L/H-SDE1E2E3FGHIJ2J3J4J5M1RWXY/LB1D1

Departure

Time 2026-05-07 23:31
Airport Winnipeg / James Armstrong Richardson International Airport (CYWG)

Arrival

Time 2026-05-08 01:27
Airport Toronto Pearson International Airport (CYYZ)
Time Latitude Longitude Altitude Speed Heading
2026-05-07 22:46 49.89511 -97.24705 778 ft 0 kts
2026-05-07 23:27 49.89617 -97.24613 778 ft 11 kts 85°
2026-05-07 23:27 49.89607 -97.24496 778 ft 10 kts 99°
2026-05-07 23:27 49.89600 -97.24412 778 ft 6 kts 97°
2026-05-07 23:28 49.89595 -97.24357 778 ft 0 kts 98°
2026-05-07 23:28 49.89595 -97.24355 778 ft 0 kts 98°
2026-05-07 23:28 49.89594 -97.24342 778 ft 3 kts 98°
2026-05-07 23:28 49.89587 -97.24278 778 ft 8 kts 100°
2026-05-07 23:29 49.89584 -97.24177 778 ft 9 kts 66°
2026-05-07 23:29 49.89606 -97.24153 778 ft 1 kts
2026-05-07 23:29 49.89610 -97.24152 778 ft 0 kts
2026-05-07 23:30 49.89677 -97.24146 778 ft 30 kts
2026-05-07 23:30 49.90127 -97.24052 778 ft 100 kts
2026-05-07 23:30 49.91042 -97.23855 787 ft 160 kts
2026-05-07 23:30 49.92188 -97.23513 1303 ft 170 kts
2026-05-07 23:31 49.93330 -97.23206 2069 ft 171 kts
2026-05-07 23:31 49.94582 -97.22958 2455 ft 192 kts
2026-05-07 23:31 49.95944 -97.22696 2887 ft 210 kts
2026-05-07 23:31 49.97461 -97.22441 3407 ft 226 kts
2026-05-07 23:32 49.99062 -97.22190 3932 ft 245 kts
2026-05-07 23:32 50.00827 -97.21917 4376 ft 260 kts
2026-05-07 23:32 50.02572 -97.21624 5497 ft 256 kts
2026-05-07 23:32 50.04349 -97.21302 6339 ft 262 kts
2026-05-07 23:33 50.06166 -97.20953 7266 ft 264 kts
2026-05-07 23:33 50.07947 -97.20603 8235 ft 263 kts
2026-05-07 23:33 50.09740 -97.20227 9122 ft 264 kts
2026-05-07 23:33 50.11568 -97.19850 10012 ft 264 kts
2026-05-07 23:34 50.13406 -97.19471 10659 ft 274 kts
2026-05-07 23:34 50.15335 -97.19070 11092 ft 290 kts
2026-05-07 23:34 50.17399 -97.18662 11574 ft 305 kts
2026-05-07 23:34 50.19531 -97.18137 12053 ft 323 kts 12°
2026-05-07 23:35 50.21626 -97.16531 12509 ft 349 kts 33°
2026-05-07 23:35 50.23272 -97.13585 12952 ft 377 kts 57°
2026-05-07 23:35 50.24041 -97.09584 13539 ft 401 kts 82°
2026-05-07 23:35 50.23697 -97.05205 14290 ft 417 kts 106°
2026-05-07 23:36 50.22279 -97.01247 15020 ft 429 kts 129°
2026-05-07 23:36 50.20018 -96.98183 15734 ft 437 kts 145°
2026-05-07 23:36 50.17463 -96.95568 16485 ft 442 kts 147°
2026-05-07 23:36 50.14869 -96.92986 17226 ft 447 kts 147°
2026-05-07 23:37 50.12213 -96.90349 17944 ft 453 kts 147°
2026-05-07 23:37 50.09549 -96.87707 18646 ft 458 kts 147°
2026-05-07 23:37 50.06845 -96.85030 19326 ft 464 kts 147°
2026-05-07 23:37 50.04147 -96.82362 20040 ft 468 kts 147°
2026-05-07 23:38 50.01455 -96.79502 20754 ft 472 kts 140°
2026-05-07 23:38 49.99027 -96.76009 21333 ft 476 kts 130°
2026-05-07 23:38 49.96987 -96.71957 21929 ft 479 kts 120°
2026-05-07 23:38 49.95390 -96.67486 22587 ft 479 kts 110°
2026-05-07 23:39 49.94243 -96.62623 23227 ft 477 kts 101°
2026-05-07 23:39 49.93602 -96.57568 23838 ft 476 kts 91°
2026-05-07 23:39 49.93449 -96.52470 24399 ft 476 kts 84°
2026-05-07 23:39 49.93468 -96.49090 24813 ft 478 kts 84°
2026-05-07 23:40 49.93495 -96.42197 25622 ft 483 kts 84°
2026-05-07 23:40 49.93492 -96.36945 26209 ft 487 kts 84°
2026-05-07 23:40 49.93483 -96.31690 26774 ft 491 kts 85°
2026-05-07 23:40 49.93464 -96.26408 27290 ft 496 kts 85°
2026-05-07 23:41 49.93433 -96.21042 27827 ft 500 kts 86°
2026-05-07 23:41 49.93394 -96.15646 28366 ft 505 kts 86°
2026-05-07 23:41 49.93348 -96.10229 28928 ft 508 kts 86°
2026-05-07 23:41 49.93296 -96.04702 29644 ft 508 kts 86°
2026-05-07 23:42 49.93238 -95.99275 30469 ft 505 kts 85°
2026-05-07 23:42 49.93177 -95.93870 31267 ft 502 kts 85°
2026-05-07 23:42 49.93113 -95.88480 31916 ft 500 kts 85°
2026-05-07 23:42 49.93048 -95.83142 32499 ft 499 kts 85°
2026-05-07 23:43 49.92979 -95.77776 32953 ft 499 kts 85°
2026-05-07 23:43 49.92906 -95.72377 33371 ft 499 kts 85°
2026-05-07 23:43 49.92833 -95.67074 33742 ft 499 kts 85°
2026-05-07 23:43 49.92755 -95.61697 34102 ft 499 kts 85°
2026-05-07 23:44 49.92674 -95.56300 34492 ft 498 kts 85°
2026-05-07 23:44 49.92593 -95.50966 34739 ft 501 kts 86°
2026-05-07 23:44 49.92420 -95.40065 34811 ft 517 kts 86°
2026-05-07 23:45 49.92224 -95.28751 34802 ft 525 kts 87°
2026-05-07 23:45 49.92014 -95.17471 34798 ft 524 kts 87°
2026-05-07 23:46 49.91796 -95.06233 34807 ft 524 kts 87°
2026-05-07 23:46 49.91415 -94.94945 34810 ft 529 kts 94°
2026-05-07 23:47 49.89385 -94.83976 34806 ft 536 kts 108°
2026-05-07 23:47 49.86504 -94.73328 34804 ft 537 kts 109°
2026-05-07 23:48 49.83599 -94.62704 34812 ft 538 kts 109°
2026-05-07 23:48 49.80687 -94.52088 34815 ft 537 kts 109°
2026-05-07 23:49 49.77780 -94.41532 34817 ft 538 kts 109°
2026-05-07 23:49 49.74839 -94.30898 34817 ft 538 kts 110°
2026-05-07 23:50 49.71898 -94.20311 34812 ft 538 kts 110°
2026-05-07 23:50 49.68943 -94.09720 34808 ft 538 kts 110°
2026-05-07 23:51 49.65974 -93.99128 34809 ft 538 kts 110°
2026-05-07 23:51 49.62996 -93.88545 34811 ft 538 kts 110°
2026-05-07 23:52 49.60009 -93.77981 34802 ft 539 kts 110°
2026-05-07 23:52 49.57030 -93.67490 34804 ft 538 kts 110°
2026-05-07 23:53 49.54016 -93.56924 34809 ft 538 kts 110°
2026-05-07 23:53 49.51012 -93.46437 34804 ft 539 kts 110°
2026-05-07 23:54 49.47984 -93.35913 34803 ft 538 kts 110°
2026-05-07 23:54 49.44955 -93.25434 34801 ft 540 kts 111°
2026-05-07 23:55 49.41917 -93.14967 34804 ft 538 kts 111°
2026-05-07 23:55 49.38861 -93.04485 34806 ft 538 kts 111°
2026-05-07 23:56 49.35798 -92.94024 34806 ft 540 kts 111°
2026-05-07 23:56 49.32727 -92.83581 34803 ft 539 kts 111°
2026-05-07 23:57 49.29641 -92.73131 34802 ft 539 kts 111°
2026-05-07 23:57 49.26534 -92.62657 34801 ft 539 kts 111°
2026-05-07 23:58 49.23434 -92.52249 34797 ft 540 kts 111°
2026-05-07 23:58 49.20319 -92.41836 34806 ft 540 kts 111°
2026-05-07 23:59 49.17200 -92.31456 34794 ft 540 kts 112°
2026-05-07 23:59 49.14069 -92.21078 34797 ft 540 kts 112°
2026-05-08 00:00 49.10924 -92.10698 34791 ft 540 kts 112°
2026-05-08 00:00 49.07782 -92.00371 34780 ft 541 kts 112°
2026-05-08 00:01 49.04598 -91.89949 34792 ft 540 kts 112°
2026-05-08 00:01 49.01445 -91.79674 34798 ft 540 kts 112°
2026-05-08 00:02 48.98270 -91.69372 34800 ft 539 kts 112°
2026-05-08 00:02 48.95079 -91.59058 34793 ft 540 kts 112°
2026-05-08 00:03 48.91880 -91.48760 34792 ft 541 kts 112°
2026-05-08 00:03 48.88660 -91.38438 34781 ft 541 kts 112°
2026-05-08 00:04 48.85434 -91.28143 34782 ft 540 kts 113°
2026-05-08 00:04 48.82200 -91.17860 34786 ft 540 kts 113°
2026-05-08 00:05 48.76080 -90.98521 34780 ft 539 kts 113°
2026-05-08 00:06 48.72820 -90.88281 34788 ft 540 kts 113°
2026-05-08 00:06 48.69556 -90.78067 34789 ft 540 kts 113°
2026-05-08 00:07 48.66285 -90.67873 34785 ft 540 kts 113°
2026-05-08 00:07 48.63007 -90.57698 34784 ft 539 kts 114°
2026-05-08 00:08 48.59726 -90.47559 34783 ft 539 kts 114°
2026-05-08 00:08 48.56433 -90.37420 34789 ft 539 kts 114°
2026-05-08 00:09 48.53124 -90.27274 34785 ft 539 kts 115°
2026-05-08 00:09 48.49807 -90.17144 34787 ft 539 kts 115°
2026-05-08 00:10 48.46488 -90.07045 34784 ft 539 kts 115°
2026-05-08 00:10 48.43151 -89.96936 34796 ft 539 kts 115°
2026-05-08 00:11 48.39843 -89.86949 34793 ft 539 kts 115°
2026-05-08 00:11 48.36489 -89.76869 34798 ft 538 kts 115°
2026-05-08 00:12 48.33140 -89.66840 34801 ft 538 kts 115°
2026-05-08 00:12 48.29788 -89.56840 34811 ft 538 kts 115°
2026-05-08 00:13 48.26427 -89.46854 34820 ft 537 kts 115°
2026-05-08 00:13 48.23251 -89.36729 34829 ft 537 kts 111°
2026-05-08 00:14 48.20359 -89.26386 34821 ft 537 kts 111°
2026-05-08 00:14 48.17455 -89.16114 34819 ft 536 kts 112°
2026-05-08 00:15 48.14532 -89.05874 34819 ft 536 kts 112°
2026-05-08 00:15 48.11592 -88.95642 34830 ft 536 kts 112°
2026-05-08 00:16 48.08627 -88.85385 34822 ft 535 kts 112°
2026-05-08 00:16 48.05664 -88.75189 34822 ft 537 kts 112°
2026-05-08 00:17 48.02691 -88.65009 34825 ft 536 kts 112°
2026-05-08 00:17 47.99713 -88.54857 34829 ft 529 kts 112°
2026-05-08 00:18 47.98258 -88.49915 34834 ft 517 kts 112°
2026-05-08 00:18 47.96808 -88.44998 34837 ft 510 kts 112°
2026-05-08 00:18 47.93953 -88.35343 34841 ft 514 kts 112°
2026-05-08 00:19 47.91073 -88.25643 34835 ft 512 kts 113°
2026-05-08 00:19 47.88192 -88.15979 34834 ft 513 kts 113°
2026-05-08 00:20 47.85297 -88.06307 34838 ft 513 kts 113°
2026-05-08 00:20 47.82382 -87.96606 34838 ft 514 kts 114°
2026-05-08 00:21 47.79478 -87.86979 34842 ft 514 kts 114°
2026-05-08 00:21 47.76537 -87.77272 34839 ft 513 kts 114°
2026-05-08 00:22 47.73627 -87.67703 34845 ft 514 kts 114°
2026-05-08 00:22 47.70688 -87.58064 34833 ft 513 kts 114°
2026-05-08 00:23 47.67735 -87.48423 34864 ft 514 kts 114°
2026-05-08 00:23 47.64780 -87.38815 34853 ft 513 kts 114°
2026-05-08 00:24 47.61822 -87.29236 34854 ft 513 kts 115°
2026-05-08 00:24 47.58850 -87.19647 34853 ft 513 kts 115°
2026-05-08 00:25 47.55880 -87.10102 34857 ft 513 kts 115°
2026-05-08 00:25 47.52887 -87.00517 34858 ft 513 kts 115°
2026-05-08 00:26 47.49906 -86.91009 34864 ft 512 kts 115°
2026-05-08 00:26 47.46910 -86.81486 34864 ft 513 kts 115°
2026-05-08 00:27 47.43900 -86.71957 34863 ft 512 kts 115°
2026-05-08 00:27 47.40883 -86.62440 34863 ft 513 kts 115°
2026-05-08 00:28 47.37864 -86.52953 34869 ft 513 kts 115°
2026-05-08 00:28 47.34834 -86.43469 34869 ft 513 kts 115°
2026-05-08 00:29 47.31797 -86.33996 34864 ft 513 kts 116°
2026-05-08 00:29 47.28744 -86.24512 34864 ft 513 kts 116°
2026-05-08 00:30 47.25679 -86.15022 34866 ft 513 kts 116°
2026-05-08 00:30 47.22621 -86.05592 34866 ft 513 kts 116°
2026-05-08 00:31 47.19557 -85.96174 34875 ft 513 kts 116°
2026-05-08 00:31 47.16483 -85.86762 34874 ft 513 kts 116°
2026-05-08 00:32 47.13392 -85.77333 34878 ft 513 kts 116°
2026-05-08 00:32 47.10296 -85.67922 34875 ft 512 kts 116°
2026-05-08 00:33 47.07194 -85.58527 34879 ft 512 kts 116°
2026-05-08 00:33 47.04092 -85.49166 34885 ft 513 kts 116°
2026-05-08 00:34 47.00963 -85.39760 34886 ft 512 kts 116°
2026-05-08 00:34 46.97872 -85.30502 34881 ft 512 kts 117°
2026-05-08 00:35 46.94743 -85.21159 34882 ft 512 kts 117°
2026-05-08 00:35 46.91601 -85.11815 34880 ft 512 kts 117°
2026-05-08 00:36 46.88456 -85.02494 34881 ft 512 kts 117°
2026-05-08 00:36 46.85296 -84.93163 34882 ft 512 kts 117°
2026-05-08 00:37 46.82139 -84.83873 34882 ft 513 kts 117°
2026-05-08 00:38 46.77398 -84.69984 34884 ft 512 kts 117°
2026-05-08 00:38 46.74224 -84.60727 34887 ft 512 kts 117°
2026-05-08 00:39 46.71036 -84.51463 34886 ft 512 kts 117°
2026-05-08 00:39 46.67853 -84.42243 34890 ft 512 kts 117°
2026-05-08 00:40 46.64663 -84.33038 34885 ft 512 kts 118°
2026-05-08 00:40 46.61455 -84.23810 34879 ft 511 kts 118°
2026-05-08 00:41 46.58239 -84.14594 34880 ft 512 kts 118°
2026-05-08 00:41 46.55028 -84.05424 34869 ft 511 kts 118°
2026-05-08 00:42 46.51796 -83.96225 34857 ft 512 kts 118°
2026-05-08 00:42 46.48561 -83.87050 34850 ft 511 kts 118°
2026-05-08 00:43 46.45334 -83.77927 34849 ft 512 kts 118°
2026-05-08 00:43 46.42078 -83.68760 34856 ft 512 kts 118°
2026-05-08 00:44 46.38000 -83.60377 34858 ft 509 kts 131°
2026-05-08 00:44 46.33420 -83.52677 34852 ft 508 kts 132°
2026-05-08 00:45 46.28756 -83.44955 34861 ft 509 kts 133°
2026-05-08 00:45 46.24069 -83.37258 34858 ft 509 kts 133°
2026-05-08 00:46 46.19412 -83.29654 34855 ft 508 kts 134°
2026-05-08 00:46 46.14711 -83.22012 34857 ft 508 kts 134°
2026-05-08 00:47 46.10033 -83.14435 34857 ft 508 kts 134°
2026-05-08 00:47 46.05320 -83.06825 34857 ft 509 kts 134°
2026-05-08 00:48 46.00626 -82.99271 34864 ft 508 kts 134°
2026-05-08 00:48 45.95895 -82.91679 34868 ft 509 kts 134°
2026-05-08 00:49 45.91170 -82.84116 34868 ft 509 kts 134°
2026-05-08 00:49 45.86465 -82.76610 34876 ft 510 kts 134°
2026-05-08 00:50 45.81716 -82.69052 34872 ft 509 kts 134°
2026-05-08 00:50 45.77695 -82.60729 34880 ft 515 kts 117°
2026-05-08 00:51 45.74828 -82.51332 34881 ft 516 kts 114°
2026-05-08 00:52 45.66166 -82.22342 34869 ft 516 kts 115°
2026-05-08 00:53 45.63336 -82.12959 34867 ft 516 kts 116°
2026-05-08 00:53 45.59495 -82.04440 34873 ft 511 kts 134°
2026-05-08 00:54 45.54470 -81.97359 34885 ft 510 kts 139°
2026-05-08 00:54 45.49347 -81.90450 34879 ft 508 kts 140°
2026-05-08 00:55 45.44201 -81.83554 34881 ft 509 kts 140°
2026-05-08 00:55 45.39039 -81.76665 34878 ft 510 kts 140°
2026-05-08 00:56 45.33864 -81.69783 34889 ft 510 kts 140°
2026-05-08 00:56 45.28720 -81.62963 34889 ft 510 kts 140°
2026-05-08 00:57 45.23513 -81.56080 34891 ft 511 kts 140°
2026-05-08 00:57 45.18330 -81.49249 34890 ft 511 kts 140°
2026-05-08 00:58 45.13128 -81.42410 34896 ft 511 kts 140°
2026-05-08 00:58 45.07973 -81.35649 34472 ft 507 kts 140°
2026-05-08 00:58 45.05378 -81.32256 33642 ft 514 kts 141°
2026-05-08 00:59 45.02728 -81.28793 32923 ft 521 kts 141°
2026-05-08 00:59 45.00071 -81.25329 32119 ft 527 kts 140°
2026-05-08 00:59 44.97401 -81.21848 31325 ft 525 kts 140°
2026-05-08 00:59 44.94755 -81.18402 30664 ft 517 kts 140°
2026-05-08 01:00 44.92143 -81.15004 30002 ft 506 kts 139°
2026-05-08 01:00 44.89598 -81.11697 29385 ft 494 kts 139°
2026-05-08 01:00 44.87085 -81.08435 28849 ft 481 kts 139°
2026-05-08 01:00 44.84684 -81.05325 28330 ft 469 kts 139°
2026-05-08 01:01 44.82313 -81.02258 27754 ft 457 kts 139°
2026-05-08 01:01 44.79986 -80.99251 27212 ft 458 kts 139°
2026-05-08 01:01 44.77589 -80.96162 26666 ft 468 kts 139°
2026-05-08 01:01 44.75225 -80.93114 26122 ft 463 kts 139°
2026-05-08 01:02 44.72901 -80.90120 25718 ft 446 kts 139°
2026-05-08 01:02 44.70651 -80.87224 25389 ft 428 kts 139°
2026-05-08 01:02 44.68483 -80.84438 24971 ft 414 kts 139°
2026-05-08 01:02 44.66391 -80.81754 24308 ft 407 kts 139°
2026-05-08 01:03 44.64317 -80.79096 23670 ft 405 kts 139°
2026-05-08 01:03 44.62225 -80.76417 23149 ft 402 kts 139°
2026-05-08 01:03 44.60167 -80.73785 22661 ft 400 kts 139°
2026-05-08 01:03 44.58127 -80.71177 22184 ft 397 kts 139°
2026-05-08 01:04 44.56101 -80.68591 21688 ft 395 kts 140°
2026-05-08 01:04 44.54091 -80.66026 21224 ft 392 kts 140°
2026-05-08 01:04 44.52085 -80.63470 20766 ft 389 kts 140°
2026-05-08 01:04 44.50080 -80.60918 20278 ft 387 kts 140°
2026-05-08 01:05 44.48090 -80.58386 19802 ft 384 kts 140°
2026-05-08 01:05 44.46124 -80.55888 19328 ft 382 kts 140°
2026-05-08 01:05 44.44176 -80.53416 18855 ft 380 kts 140°
2026-05-08 01:05 44.42228 -80.50945 18419 ft 377 kts 140°
2026-05-08 01:06 44.40303 -80.48506 17992 ft 374 kts 140°
2026-05-08 01:06 44.38383 -80.46075 17545 ft 372 kts 140°
2026-05-08 01:06 44.36474 -80.43660 17117 ft 369 kts 140°
2026-05-08 01:06 44.34566 -80.41249 16673 ft 367 kts 140°
2026-05-08 01:07 44.32669 -80.38856 16253 ft 365 kts 140°
2026-05-08 01:07 44.30803 -80.36500 15831 ft 362 kts 140°
2026-05-08 01:07 44.28937 -80.34149 15384 ft 360 kts 141°
2026-05-08 01:07 44.27106 -80.31844 14949 ft 358 kts 141°
2026-05-08 01:08 44.25258 -80.29520 14516 ft 356 kts 141°
2026-05-08 01:08 44.23413 -80.27200 14096 ft 354 kts 141°
2026-05-08 01:08 44.21594 -80.24914 13699 ft 351 kts 141°
2026-05-08 01:08 44.19802 -80.22668 13276 ft 348 kts 142°
2026-05-08 01:09 44.17996 -80.20405 12855 ft 346 kts 142°
2026-05-08 01:09 44.16221 -80.18176 12373 ft 346 kts 141°
2026-05-08 01:09 44.14467 -80.15970 12314 ft 332 kts 142°
2026-05-08 01:09 44.12792 -80.13866 12296 ft 317 kts 142°
2026-05-08 01:10 44.11196 -80.11867 12174 ft 307 kts 142°
2026-05-08 01:10 44.09617 -80.09894 11845 ft 305 kts 142°
2026-05-08 01:10 44.08025 -80.07910 11437 ft 305 kts 142°
2026-05-08 01:10 44.06477 -80.05976 11096 ft 303 kts 142°
2026-05-08 01:11 44.04913 -80.04024 10956 ft 297 kts 142°
2026-05-08 01:11 44.03371 -80.02099 10958 ft 302 kts 142°
2026-05-08 01:11 44.01781 -80.00183 10947 ft 299 kts 148°
2026-05-08 01:11 44.00062 -79.98563 10950 ft 299 kts 152°
2026-05-08 01:12 43.98307 -79.97017 10953 ft 297 kts 152°
2026-05-08 01:12 43.96578 -79.95504 10954 ft 297 kts 152°
2026-05-08 01:12 43.94820 -79.93947 10955 ft 298 kts 152°
2026-05-08 01:12 43.93078 -79.92406 10957 ft 297 kts 152°
2026-05-08 01:13 43.91338 -79.90864 10955 ft 297 kts 152°
2026-05-08 01:13 43.89606 -79.89342 10950 ft 297 kts 152°
2026-05-08 01:13 43.87873 -79.87807 10677 ft 293 kts 152°
2026-05-08 01:13 43.86160 -79.86304 10231 ft 295 kts 152°
2026-05-08 01:14 43.84459 -79.84693 9874 ft 296 kts 144°
2026-05-08 01:14 43.82935 -79.82782 9534 ft 296 kts 140°
2026-05-08 01:14 43.81450 -79.80801 9161 ft 295 kts 140°
2026-05-08 01:14 43.79985 -79.78857 8842 ft 292 kts 140°
2026-05-08 01:15 43.78550 -79.76968 8817 ft 278 kts 140°
2026-05-08 01:15 43.77320 -79.74947 8748 ft 269 kts 117°
2026-05-08 01:15 43.76865 -79.72536 8673 ft 258 kts 93°
2026-05-08 01:15 43.77102 -79.70121 8348 ft 255 kts 64°
2026-05-08 01:16 43.77982 -79.68040 8036 ft 250 kts 49°
2026-05-08 01:16 43.79082 -79.66213 7985 ft 248 kts 44°
2026-05-08 01:16 43.80225 -79.64445 7968 ft 247 kts 45°
2026-05-08 01:16 43.81388 -79.62652 7968 ft 248 kts 44°
2026-05-08 01:17 43.82520 -79.60908 7963 ft 247 kts 44°
2026-05-08 01:17 43.83672 -79.59137 7982 ft 248 kts 44°
2026-05-08 01:17 43.84837 -79.57342 7974 ft 247 kts 44°
2026-05-08 01:17 43.85972 -79.55595 7971 ft 248 kts 44°
2026-05-08 01:18 43.87120 -79.53826 7969 ft 247 kts 44°
2026-05-08 01:18 43.88287 -79.52029 7977 ft 248 kts 44°
2026-05-08 01:18 43.89427 -79.50271 7970 ft 247 kts 44°
2026-05-08 01:18 43.90559 -79.48465 7960 ft 248 kts 50°
2026-05-08 01:19 43.91628 -79.46605 7953 ft 243 kts 46°
2026-05-08 01:19 43.92719 -79.44843 7565 ft 245 kts 45°
2026-05-08 01:19 43.93832 -79.43065 7224 ft 243 kts 45°
2026-05-08 01:19 43.94943 -79.41286 6911 ft 240 kts 46°
2026-05-08 01:20 43.95741 -79.39259 6532 ft 243 kts 77°
2026-05-08 01:20 43.95655 -79.37043 6409 ft 228 kts 111°
2026-05-08 01:20 43.94776 -79.35317 6118 ft 217 kts 146°
2026-05-08 01:20 43.93442 -79.34499 5713 ft 212 kts 169°
2026-05-08 01:21 43.92020 -79.33993 5382 ft 210 kts 170°
2026-05-08 01:21 43.90581 -79.33686 5022 ft 207 kts 183°
2026-05-08 01:21 43.89202 -79.33986 4695 ft 200 kts 199°
2026-05-08 01:21 43.87853 -79.34506 4596 ft 202 kts 200°
2026-05-08 01:22 43.86492 -79.35037 4544 ft 204 kts 200°
2026-05-08 01:22 43.85126 -79.35586 4344 ft 203 kts 202°
2026-05-08 01:22 43.83868 -79.36391 4132 ft 199 kts 218°
2026-05-08 01:22 43.82793 -79.37580 3985 ft 195 kts 227°
2026-05-08 01:23 43.81821 -79.38909 3970 ft 196 kts 230°
2026-05-08 01:23 43.80891 -79.40254 3967 ft 195 kts 231°
2026-05-08 01:23 43.79957 -79.41620 3974 ft 195 kts 231°
2026-05-08 01:23 43.79012 -79.43010 3847 ft 199 kts 231°
2026-05-08 01:24 43.78072 -79.44385 3586 ft 196 kts 231°
2026-05-08 01:24 43.77135 -79.45753 3327 ft 195 kts 231°
2026-05-08 01:24 43.76210 -79.47106 3068 ft 195 kts 231°
2026-05-08 01:24 43.75277 -79.48461 2807 ft 194 kts 231°
2026-05-08 01:25 43.74400 -79.49743 2556 ft 190 kts 231°
2026-05-08 01:25 43.73521 -79.51018 2307 ft 178 kts 231°
2026-05-08 01:25 43.72684 -79.52237 2053 ft 169 kts 232°
2026-05-08 01:25 43.71907 -79.53368 1835 ft 156 kts 232°
2026-05-08 01:26 43.71191 -79.54408 1627 ft 140 kts 232°
2026-05-08 01:26 43.70515 -79.55396 1443 ft 144 kts 231°
2026-05-08 01:26 43.69802 -79.56436 1237 ft 156 kts 230°
2026-05-08 01:26 43.69027 -79.57498 1022 ft 157 kts 229°
2026-05-08 01:27 43.68288 -79.58575 795 ft 153 kts 231°
2026-05-08 01:27 43.67571 -79.59652 595 ft 149 kts 229°
2026-05-08 01:27 43.66925 -79.60604 530 ft 111 kts 229°
2026-05-08 01:27 43.66525 -79.61194 524 ft 41 kts 227°
2026-05-08 01:28 43.66396 -79.61517 529 ft 35 kts 253°
2026-05-08 01:28 43.66375 -79.61650 531 ft 8 kts 267°
2026-05-08 01:28 43.66381 -79.61731 533 ft 8 kts 284°
2026-05-08 01:28 43.66401 -79.61764 535 ft 8 kts 327°
2026-05-08 01:29 43.66505 -79.61868 541 ft 19 kts 321°
2026-05-08 01:29 43.66565 -79.61951 545 ft 9 kts 294°
2026-05-08 01:29 43.66551 -79.62025 545 ft 12 kts 239°
2026-05-08 01:29 43.66535 -79.62149 544 ft 14 kts 340°
2026-05-08 01:30 43.66602 -79.62097 545 ft 12 kts 40°
2026-05-08 01:30 43.66678 -79.62005 550 ft 16 kts 43°
2026-05-08 01:30 43.66780 -79.61877 550 ft 22 kts 43°
2026-05-08 01:30 43.66902 -79.61719 549 ft 21 kts 43°
2026-05-08 01:31 43.67023 -79.61694 551 ft 18 kts 323°
2026-05-08 01:31 43.67113 -79.61810 555 ft 18 kts 316°
2026-05-08 01:31 43.67215 -79.61942 556 ft 21 kts 317°
2026-05-08 01:31 43.67324 -79.62086 556 ft 20 kts 316°
2026-05-08 01:32 43.67421 -79.62213 556 ft 18 kts 317°
2026-05-08 01:32 43.67519 -79.62338 556 ft 20 kts 316°
2026-05-08 01:32 43.67624 -79.62477 556 ft 20 kts 317°
2026-05-08 01:32 43.67725 -79.62608 556 ft 18 kts 316°
2026-05-08 01:33 43.67814 -79.62723 556 ft 16 kts 318°
2026-05-08 01:33 43.67895 -79.62829 556 ft 15 kts 317°
2026-05-08 01:33 43.67947 -79.62937 556 ft 13 kts 269°
2026-05-08 01:33 43.67911 -79.63041 556 ft 11 kts 258°
2026-05-08 01:34 43.67938 -79.63126 556 ft 5 kts 318°